Regional Weather Roundup
Issued by NWS

Current Version | Previous Version | Text Only | Print | Product List | Glossary On
Versions: 1 2 3 4 5 6 7 8 9 10 11 12 13 14 15 16 17 18 19 20 21 22 23 24 25 26 27 28 29 30 31 32 33 34 35 36 37 38 39 40 41 42 43 44 45 46 47 48 49 50
000
ASUS43 KLOT 100708
RWRIL

ILLINOIS REGIONAL WEATHER ROUNDUP
NATIONAL WEATHER SERVICE CHICAGO/ROMEOVILLE IL
100 AM CST WED FEB 10 2016

NOTE: "FAIR" INDICATES FEW OR NO CLOUDS BELOW 12,000 FEET WITH NO
SIGNIFICANT WEATHER AND/OR OBSTRUCTIONS TO VISIBILITY.

* THESE STATIONS ARE NOT UNDER NWS QUALITY CONTROL. THEY ALSO MAY NOT
  REPORT WEATHER SUCH AS PRECIPITATION OR FOG.

ILZ001-002-007-009-015-016-024-100800-
NORTHWEST ILLINOIS

CITY           SKY/WX    TMP DP  RH WIND       PRES   REMARKS
MOLINE         CLEAR     11   1  64 NW15      30.10R WCI  -5
STERLING*      CLEAR     10   0  61 NW13      30.02S WCI  -5
SAVANNA*       PTCLDY    11   1  64 NW12      30.07S WCI  -3
$$

ILZ003-004-008-010-011-017-018-100800-
NORTH CENTRAL ILLINOIS

CITY           SKY/WX    TMP DP  RH WIND       PRES   REMARKS
ROCKFORD       CLOUDY    12   1  61 NW15      30.03R WCI  -4
FREEPORT*      CLEAR      9   0  68 NW12G17   30.04R WCI  -6
ROCHELLE*      CLOUDY    11   2  67 NW17      30.01R WCI  -6
DE KALB*       CLOUDY    13   4  66 NW14G20   29.98R WCI  -2
$$

ILZ005-006-012>014-019>023-100800-
NORTHEAST ILLINOIS

CITY           SKY/WX    TMP DP  RH WIND       PRES   REMARKS
CHICAGO-OHARE  MOCLDY    14   5  67 NW16      29.94S WCI  -2
CHICAGO-MIDWAY FLURRIES  16   4  59 NW15G23   29.94S WCI   1
AURORA         PTCLDY    14   4  64 NW15      29.98R WCI  -1
LANSING*       CLOUDY    15   7  71 NW9G18    29.94S WCI   3
JOLIET*        PTCLDY    14   5  67 NW5       29.98R WCI   7
WAUKEGAN       CLEAR     12   4  70 NW13G18   29.93R WCI  -3
DUPAGE AIRPORT CLEAR     12   1  61 NW12      29.95R WCI  -2
KANKAKEE*      MOCLDY    15   6  66 W13G18    29.97S WCI   1
WHEELING       CLOUDY    14   4  64 NW18      29.96R WCI  -3
MORRIS*        CLEAR     12   5  74 NW13      29.95S WCI  -3
ROMEOVILLE*    CLOUDY    13   3  64 NW16      29.96S WCI  -3
$$

LMZ740>746-100800-
SOUTHERN LAKE MICHIGAN

STATION/POSITION SKY/WX   TEMP    WIND        PRES    VSBY  WAVE
                          AIR SEA DIR/SP/G                  HT/PER
                          (F)     (DEG/KT/KT) (MB)    (MI)  (FT/S)
HARRISON CRIB              17     300/ 19/ 21   N/A
BURNHAM HARBOR             17     290/ 12/ 19   N/A
CALUMET HARBOR             15     270/  9/ 14 1013.1F
BURNS HARBOR               19     300/ 20/ 23 1013.5S
MICHIGAN CITY              19     280/ 25/ 28   N/A
$$

ILZ025>027-034>036-040-047-049-050-058-095>099-100800-
WEST-CENTRAL ILLINOIS

CITY           SKY/WX    TMP DP  RH WIND       PRES   REMARKS
QUINCY         CLEAR     13   4  67 NW14      30.14S WCI  -2
GALESBURG*     CLEAR      9   4  78 W8        30.09R WCI  -3
MACOMB*        CLEAR     10   5  79 NW13      30.13R WCI  -5
JACKSONVILLE*  PTCLDY    13   6  74 W10       30.12S WCI   0
PITTSFIELD*    PTCLDY    14   6  70 NW8       30.15R WCI   3
$$

ILZ028>032-037-038-041>044-048-051>054-059>061-100800-
CENTRAL ILLINOIS

CITY           SKY/WX    TMP DP  RH WIND       PRES   REMARKS
PONTIAC        CLEAR     12   6  77 W14       30.01S WCI  -4
BLOOMINGTON    CLEAR     10   4  77 NW17      30.03R WCI  -8
DECATUR        CLOUDY    13   5  70 NW15      30.05S WCI  -3
PEORIA         CLEAR     12   3  67 NW8G17    30.08R WCI   0
LACON*         CLEAR     11   3  70 NW16      30.05S WCI  -5
LINCOLN*       PTCLDY    13   6  74 W7        30.07S WCI   3
SPRINGFIELD    PTCLDY    13   5  70 NW12      30.09S WCI  -1
TAYLORVILLE    PTCLDY    14   7  73 NW14G22   30.09S WCI  -1
$$

ILZ033-039-045-046-055>057-062-063-100800-
EAST-CENTRAL ILLINOIS

CITY           SKY/WX    TMP DP  RH WIND       PRES   REMARKS
CHAMPAIGN      CLOUDY    13   6  74 NW13      30.01S WCI  -2
RANTOUL*       MOCLDY    14   6  70 NW15G22   30.00R WCI  -1
MATTOON        CLOUDY    13   6  74 NW22      30.03R WCI  -6
PARIS*         CLOUDY    15  10  83 NW13      30.02R WCI   0
$$

ILZ079-100>102-100800-
SOUTHWEST ILLINOIS

CITY           SKY/WX    TMP DP  RH WIND       PRES   REMARKS
ALTON          FLURRIES  16   8  70 NW12G20   30.14S WCI   3
CAHOKIA*       CLOUDY    20   7  57 NW22G29   30.16R WCI   3
SPARTA*        PTCLDY    18   8  63 NW8       30.14R WCI   8
$$

ILZ064>066-069>071-074>076-080>082-084>086-088>090-092>094-100800-
SOUTH-CENTRAL ILLINOIS

CITY           SKY/WX    TMP DP  RH WIND       PRES   REMARKS
CARBONDALE     MOCLDY    18  10  71 NW7       30.13R WCI   9
EFFINGHAM*     FLURRIES  15   9  75 W13G21    30.09R WCI   2
MARION         CLEAR     19  10  68 NW5       30.12S WCI  13
MT. VERNON     PTCLDY    16   3  57 CALM      30.11R
CENTRALIA*     MOCLDY    17   9  70 NW20G25   30.10R WCI   1
SALEM*         LGT SNOW  17  10  72 NW15      30.10R WCI   3
METROPOLIS*    LGT SNOW  22  19  87 N6        30.13R WCI  15
$$

ILZ067-068-072-073-078-083-087-091-100800-
SOUTHEAST ILLINOIS

CITY           SKY/WX    TMP DP  RH WIND       PRES   REMARKS
LAWRENCEVILLE  CLOUDY    18   9  68 NW17      30.05S WCI   3
FLORA*         CLOUDY    18   8  64 NW15G23   30.10R WCI   3
FAIRFIELD*     CLEAR     16   7  66 NW9       30.09S WCI   5
HARRISBURG*    PTCLDY    17  10  71 NW9       30.12R WCI   6
ROBINSON*      CLOUDY    16   9  75 NW12      30.06S WCI   2
CARMI*         CLEAR     17   8  70 NW15      30.10R WCI   2
$$

ABBREVIATIONS USED IN REMARKS
   TC - TEMPERATURE IN CELSIUS
  WCI - WIND CHILL INDEX
   HX - HEAT INDEX
  VSB - VISIBILITY
$$




USA.gov is the U.S. government's official web portal to all federal, state and local government web resources and services.